Hourly Data Report for October 27, 2015

All times are specified in Local Standard Time (LST). Add 1 hour to adjust for Daylight Saving Time where and when it is observed.

OTTAWA INTL A
ONTARIO

45°19'00.000" N
75°40'00.000" W
114.90 m
6106001
71628
YOW

Download Data

Hourly Data (October 2015)
Hourly Data Report for October 27, 2015
Temp Definition
°C
Dew Point Temp Definition
°C
Rel Hum Definition
%
Wind Dir Definition
10's deg

Wind Spd Definition
km/h
Visibility Definition
km
Stn Press Definition
kPa
Hmdx Definition


Wind Chill Definition


Weather Definition


TIME
00:00 Legend Double Dagger 0.3 -2.6 81 17 8 24.1 101.96     LegendNANA
01:00 Legend Double Dagger -0.8 -3.2 84 16 5 24.1 101.97   -2 Clear
02:00 Legend Double Dagger -0.9 -3.8 81 10 5 24.1 101.95   -3 LegendNANA
03:00 Legend Double Dagger -0.2 -2.9 82 17 8 24.1 101.97   -3 LegendNANA
04:00 Legend Double Dagger -1.5 -3.9 84 17 10 24.1 101.97   -5 Clear
05:00 Legend Double Dagger -1.2 -2.8 89 15 4 24.1 101.98   -3 LegendNANA
06:00 Legend Double Dagger -2.7 -3.5 94 18 4 24.1 101.99   -4 LegendNANA
07:00 Legend Double Dagger -2.4 -3.2 94 17 5 24.1 102.04   -4 Mainly Clear
08:00 Legend Double Dagger 0.0 -1.4 90 20 11 24.1 102.11   -4 LegendNANA
09:00 Legend Double Dagger 4.0 0.9 80 20 10 24.1 102.14     LegendNANA
10:00 Legend Double Dagger 7.3 1.0 64 22 12 24.1 102.15     Mainly Clear
11:00 Legend Double Dagger 9.3 0.5 54 20 14 24.1 102.12     LegendNANA
12:00 Legend Double Dagger 10.1 -0.7 47 22 10 24.1 102.04     LegendNANA
13:00 Legend Double Dagger 10.8 -0.9 44 20 9 24.1 101.97     Mainly Clear
14:00 Legend Double Dagger 11.2 -0.6 44 19 9 24.1 101.92     LegendNANA
15:00 Legend Double Dagger 10.8 -1.6 42 25 5 24.1 101.87     LegendNANA
16:00 Legend Double Dagger 10.1 -1.3 45 21 3 24.1 101.83     Mostly Cloudy
17:00 Legend Double Dagger 6.7 -1.2 57 14 8 24.1 101.82     LegendNANA
18:00 Legend Double Dagger 5.4 -1.7 60 12 9 24.1 101.82     LegendNANA
19:00 Legend Double Dagger 3.7 -2.1 66 13 10 24.1 101.84     Cloudy
20:00 Legend Double Dagger 5.0 -1.5 63 11 9 24.1 101.83     LegendNANA
21:00 Legend Double Dagger 3.5 -1.9 68 10 8 24.1 101.82     LegendNANA
22:00 Legend Double Dagger 2.6 -2.1 71 8 12 24.1 101.79     Mainly Clear
23:00 Legend Double Dagger 2.0 -2.0 75 9 12 24.1 101.79     LegendNANA

Notes on Data Quality.

Legend

  • E = Estimated
  • M = Missing
  • NA = Not Available
  • ‡ = Partner data that is not subject to review by the National Climate Archives
Date modified: